Regional Weather Roundup
Issued by NWS

Home | Current Version | Previous Version | Text Only | Print | Product List | Glossary Off
Versions: 1 2 3 4 5 6 7 8 9 10 11 12 13 14 15 16 17 18 19 20 21 22 23 24 25 26 27 28 29 30 31 32 33 34 35 36 37 38 39 40 41 42 43 44 45 46 47 48 49 50

000
ASUS44 KMEG 301400
RWRTN
TENNESSEE HOURLY STATE WEATHER ROUNDUP
NATIONAL WEATHER SERVICE MEMPHIS TN
900 AM CDT THU JUL 30 2015

TNZ002-004-019-021-049-052-054-088>092-301500-
WEST TENNESSEE

CITY           SKY/WX    TMP DP  RH WIND       PRES   REMARKS
MEMPHIS INTL   SUNNY     84  65  52 NE18      30.09R
NWS MEMPHIS      N/A     81 N/A N/A MISG        N/A
JACKSON        PTSUNNY   81  64  56 NE10      30.11R
DYERSBURG        N/A    N/A N/A N/A MISG        N/A
PARIS          SUNNY     75  63  64 NE9       30.13S
$$

TNZ008-025-027-028-033-062-065-066-301500-
NORTH MIDDLE TENNESSEE

CITY           SKY/WX    TMP DP  RH WIND       PRES   REMARKS
NASHVILLE      MOSUNNY   82  65  56 NE12      30.10R
CLARKSVILLE    SUNNY     78  65  63 N8        30.12R
CROSSVILLE     CLOUDY    75  70  84 N6        30.13S
$$

TNZ061-075-076-078-094-096-097-301500-
SOUTH MIDDLE TENNESSEE

CITY           SKY/WX    TMP DP  RH WIND       PRES   REMARKS
FAYETTEVILLE   CLOUDY    75  72  88 NE12      30.09R
TULLAHOMA      CLOUDY    75  70  83 N7        30.11R
WINCHESTER     PTSUNNY   79  72  78 N9        30.09R
MCMINNVILLE    MOSUNNY   79  77  94 NE9       30.09S
COLUMBIA       PTSUNNY   81  72  74 NE7       30.08S
SHELBYVILLE    MOSUNNY   79  72  78 N8        30.10R
$$

TNZ017-018-042-046-047-301500-
NORTHEAST TENNESSEE

CITY           SKY/WX    TMP DP  RH WIND       PRES   REMARKS
TRI CITIES     MOSUNNY   79  72  79 CALM      30.07R
ELIZABETHTON   PTSUNNY   77  72  83 SW3       30.08R
$$

TNZ012-013-036-069-073-074-301500-
CENTRAL EAST TENNESSEE

CITY           SKY/WX    TMP DP  RH WIND       PRES   REMARKS
KNOXVILLE      CLOUDY    80  70  71 N8        30.06R
OAK RIDGE      PTSUNNY   81  71  71 CALM      30.07S
GATLINBURG     CLOUDY    79  72  78 NW3       30.06R
$$

TNZ083-085-099-301500-
SOUTHEAST TENNESSEE

CITY           SKY/WX    TMP DP  RH WIND       PRES   REMARKS
CHATTANOOGA    MOSUNNY   83  71  67 N12       30.05R
$$

SKY/WX REPORTED AS FAIR MEANS FEW OR NO CLOUDS BELOW
12 THOUSAND FEET.



USA.gov is the U.S. government's official web portal to all federal, state and local government web resources and services.